Regional Weather Roundup
Issued by NWS

Home | Current Version | Previous Version | Graphics & Text | Print | Product List | Glossary Off
Versions: 1 2 3 4 5 6 7 8 9 10 11 12 13 14 15 16 17 18 19 20 21 22 23 24 25 26 27 28 29 30 31 32 33 34 35 36 37 38 39 40 41 42 43 44 45 46 47 48 49 50

000
ASUS43 KTOP 172059
RWRKS

WEATHER ROUNDUP FOR KANSAS
NATIONAL WEATHER SERVICE GOODLAND KS
300 PM CST TUE JAN 17 2017

NOTE:  "FAIR" INDICATES FEW OR NO CLOUDS BELOW 12,000 FEET WITH NO
SIGNIFICANT WEATHER AND/OR OBSTRUCTIONS TO VISIBILITY.

KSZ001>006-013>018-027>032-041>047-172200-
NORTHWEST KANSAS

CITY           SKY/WX    TMP DP  RH WIND       PRES   REMARKS
GOODLAND       SUNNY     45  35  68 SW12      30.03F
HAYS           SUNNY     46  31  55 W8        30.09F
HILL CITY      SUNNY     49  29  46 W10       30.07F
RUSSELL        SUNNY     44  32  62 SW8G18    30.08S
$$

KSZ061>065-074>080-084>089-172200-
SOUTHWEST KANSAS

CITY           SKY/WX    TMP DP  RH WIND       PRES   REMARKS
DODGE CITY     SUNNY     48  32  53 NW7       30.09F
ELKHART          N/A     46  32  58 S6          N/A
GARDEN CITY    SUNNY     46  33  60 W9        30.08F
GREAT BEND     SUNNY     46  28  49 W9        30.11S
LIBERAL        SUNNY     52  34  50 SW8       30.10F
$$

KSZ066>073-081>083-090>101-172200-
SOUTHEAST KANSAS

CITY           SKY/WX    TMP DP  RH WIND       PRES   REMARKS
CHANUTE        CLOUDY    42  35  76 W6        30.13F
COFFEYVILLE    CLOUDY    44  36  73 NW5       30.14F
HUTCHINSON     SUNNY     49  30  48 NW7       30.11S
MEDICINE LODGE   N/A     54  30  40 W3        30.10F
NEWTON         SUNNY     48  33  56 W7        30.11S
PARSONS        CLOUDY    42  35  76 SW5       30.15S
WICHITA INTL   SUNNY     50  28  42 W9        30.11S
WICHITA JABRA  SUNNY     49  30  48 W12       30.11S
WINFIELD       SUNNY     51  33  50 NW8       30.13S
$$

KSZ007>012-019>026-033>040-048>060-102>105-172200-
NORTHEAST KANSAS

CITY           SKY/WX    TMP DP  RH WIND       PRES   REMARKS
CONCORDIA      SUNNY     40  32  73 SW7       30.09S
EMPORIA        SUNNY     48  35  60 NW8       30.10S
LAWRENCE       PTSUNNY   43  37  79 W7        30.12R
MANHATTAN      SUNNY     44  29  55 W10       30.11R
OLATHE IND     CLOUDY    39  36  89 W7        30.11S
OLATHE EXE     CLOUDY    38  36  92 W7        30.10S
SALINA         SUNNY     45  30  55 W10       30.12S
TOPEKA BILLARD PTSUNNY   45  35  68 W7        30.11R
TOPEKA FORBES  SUNNY     47  35  63 NW6       30.10R
$$




USA.gov is the U.S. government's official web portal to all federal, state and local government web resources and services.